QPF
0.00 0.00 0.00 0.00 0.00 0.00 0.00 0.00 0.00 0.00 0.00 0.00 0.00 0.00 0.00 0.00 0.00 0.00 0.00 0.00 0.00 0.00 0.00 0.00 0.00 0.00 0.00 0.00 0.00 0.00 0.00 0.00 0.00 0.00 0.00 0.00 0.00 0.00 0.00 0.00 0.00 0.00 0.00 0.00
0.00 0.00 0.00 0.00 0.00 0.00 0.00 0.00 0.00 0.00 0.00 0.00 0.00 0.00 0.00 0.00 0.00 0.00 0.00 0.00 0.00 0.00 0.00 0.00 0.00 0.00 0.00 0.00 0.00 0.00 0.00 0.00 0.00 0.00 0.00 0.00 0.00 0.00 0.00 0.00 0.00 0.00 0.00 0.00
0.00 0.00 0.00 0.00 0.00 0.00 0.00 0.00 0.00 0.00 0.00 0.00 0.00 0.00 0.00 0.00 0.00 0.00 0.00 0.00 0.00 0.00 0.00 0.00 0.00 0.00 0.00 0.00 0.00 0.00 0.00 0.00 0.00 0.00 0.00 0.00 0.00 0.00 0.00 0.00 0.00 0.00 0.00 0.00
0.00 0.00 0.00 0.00 0.00 0.00 0.00 0.00 0.00 0.00 0.00 0.00 0.00 0.00 0.00 0.00 0.00 0.00 0.00 0.00 0.00 0.00 0.00 0.00 0.00 0.00 0.00 0.00 0.00 0.00 0.00 0.00 0.00 0.00 0.00 0.00 0.00 0.00 0.00 0.00 0.00 0.00 0.00 0.00
0.00 0.00 0.00 0.00 0.00 0.00 0.00 0.00 0.00 0.00 0.00 0.00 0.00 0.00 0.00 0.00 0.00 0.00 0.00 0.00 0.00 0.00 0.00 0.00 0.00 0.00 0.00 0.00 0.00 0.00 0.00 0.00 0.00 0.00 0.00 0.00 0.00 0.00 0.00 0.00 0.00 0.00 0.00 0.01
0.02 0.01 0.00 0.00 0.00 0.01 0.00 0.00 0.00 0.00 0.00 0.00 0.00 0.00 0.00 0.00 0.00 0.00 0.00 0.00 0.00 0.00 0.00 0.00 0.00 0.00 0.00 0.00 0.00 0.00 0.00 0.00 0.00 0.00 0.00 0.00 0.00 0.00 0.00 0.00 0.00 0.00 0.00 0.00
0.03 0.02 0.00 0.00 0.00 0.00 0.00 0.00 0.00 0.00 0.00 0.00 0.00 0.00 0.00 0.00 0.00 0.00 0.00 0.00 0.00 0.00 0.00 0.00 0.00 0.00 0.00 0.00 0.00 0.00 0.00 0.00 0.00 0.00 0.00 0.00 0.00 0.00 0.00 0.00 0.00 0.00 0.00 0.00
0.02 0.02 0.00 0.00 0.00 0.00 0.00 0.00 0.00 0.00 0.00 0.00 0.00 0.00 0.00 0.00 0.00 0.00 0.00 0.00 0.00 0.00 0.00 0.00 0.00 0.00 0.00 0.00 0.00 0.00 0.00 0.00 0.00 0.00 0.00 0.00 0.00 0.00 0.00 0.00 0.00 0.00 0.00 0.00
0.00 0.01 0.00 0.00 0.00 0.00 0.00 0.00 0.00 0.00 0.00 0.00 0.00 0.00 0.00 0.00 0.00 0.00 0.00 0.00 0.00 0.00 0.00 0.00 0.00 0.00 0.00 0.00 0.00 0.00 0.00 0.00 0.00 0.00 0.00 0.00 0.00 0.00 0.00 0.00 0.00 0.00 0.00 0.00
0.00 0.00 0.00 0.00 0.00 0.00 0.00 0.00 0.00 0.00 0.00 0.00 0.00 0.00 0.00 0.00 0.00 0.00 0.00 0.00 0.00 0.00 0.00 0.00 0.00 0.00 0.00 0.00 0.00 0.00 0.00 0.00 0.00 0.00 0.00 0.00 0.00 0.00 0.00 0.00 0.00 0.00 0.00 0.01
0.00 0.00 0.00 0.00 0.00 0.00 0.00 0.00 0.00 0.00 0.00 0.00 0.00 0.00 0.00 0.00 0.00 0.00 0.00 0.00 0.00 0.00 0.00 0.00 0.00 0.00 0.00 0.00 0.00 0.00 0.00 0.00 0.00 0.00 0.00 0.00 0.00 0.00 0.00 0.00 0.00 0.00 0.00 0.00
0.00 0.00 0.00 0.00 0.00 0.00 0.00 0.00 0.00 0.00 0.00 0.00 0.00 0.00 0.00 0.00 0.00 0.00 0.00 0.00 0.00 0.00 0.00 0.00 0.00 0.00 0.00 0.00 0.00 0.00 0.00 0.00 0.00 0.00 0.00 0.00 0.00 0.00 0.00 0.00 0.00 0.00 0.00 0.00
0.00 0.00 0.00 0.00 0.00 0.00 0.00 0.00 0.00 0.00 0.00 0.00 0.00 0.00 0.00 0.00 0.00 0.00 0.00 0.00 0.00 0.00 0.00 0.00 0.00 0.00 0.00 0.00 0.00 0.00 0.00 0.00 0.00 0.00 0.00 0.00 0.00 0.00 0.00 0.00 0.00 0.00 0.00 0.00
0.00 0.00 0.00 0.00 0.00 0.00 0.00 0.00 0.00 0.00 0.00 0.00 0.00 0.00 0.00 0.00 0.00 0.01 0.01 0.01 0.01 0.00 0.00 0.00 0.00 0.00 0.00 0.00 0.00 0.00 0.00 0.00 0.00 0.00 0.00 0.00 0.00 0.00 0.00 0.01 0.01 0.01 0.01 0.00
0.00 0.00 0.00 0.00 0.00 0.00 0.00 0.00 0.00 0.00 0.00 0.00 0.00 0.00 0.00 0.01 0.01 0.01 0.01 0.01 0.00 0.00 0.00 0.00 0.00 0.00 0.00 0.00 0.00 0.00 0.00 0.00 0.00 0.00 0.00 0.00 0.00 0.00 0.00 0.01 0.01 0.01 0.01 0.02
0.00 0.00 0.00 0.00 0.00 0.00 0.00 0.00 0.00 0.00 0.00 0.00 0.00 0.01 0.01 0.01 0.01 0.01 0.01 0.00 0.00 0.01 0.01 0.01 0.01 0.01 0.00 0.00 0.00 0.00 0.00 0.00 0.00 0.00 0.00 0.00 0.00 0.00 0.00 0.01 0.01 0.02 0.02 0.02
0.00 0.00 0.00 0.00 0.00 0.00 0.00 0.00 0.00 0.00 0.00 0.00 0.00 0.01 0.00 0.00 0.00 0.00 0.01 0.01 0.01 0.01 0.01 0.00 0.00 0.00 0.00 0.00 0.00 0.00 0.00 0.00 0.00 0.00 0.00 0.00 0.00 0.00 0.01 0.01 0.01 0.02 0.02 0.01
0.00 0.00 0.00 0.00 0.00 0.00 0.00 0.00 0.00 0.00 0.00 0.00 0.00 0.00 0.00 0.00 0.00 0.01 0.01 0.01 0.00 0.00 0.00 0.00 0.00 0.00 0.00 0.00 0.00 0.00 0.00 0.00 0.00 0.00 0.00 0.00 0.00 0.00 0.01 0.01 0.01 0.02 0.03 0.02
0.00 0.00 0.00 0.00 0.00 0.00 0.00 0.00 0.00 0.00 0.00 0.00 0.00 0.00 0.00 0.00 0.00 0.00 0.00 0.00 0.00 0.00 0.00 0.00 0.00 0.00 0.00 0.00 0.00 0.00 0.00 0.00 0.00 0.00 0.00 0.00 0.01 0.01 0.01 0.01 0.01 0.02 0.02 0.02
0.00 0.00 0.00 0.00 0.00 0.00 0.00 0.00 0.00 0.00 0.00 0.00 0.00 0.00 0.00 0.00 0.00 0.00 0.00 0.00 0.00 0.00 0.00 0.00 0.00 0.00 0.00 0.00 0.00 0.00 0.00 0.00 0.00 0.00 0.00 0.01 0.01 0.01 0.01 0.01 0.01 0.02 0.02 0.03
0.00 0.00 0.00 0.00 0.00 0.00 0.00 0.00 0.00 0.00 0.00 0.00 0.00 0.00 0.00 0.00 0.00 0.00 0.00 0.00 0.00 0.00 0.00 0.00 0.00 0.00 0.00 0.00 0.00 0.00 0.00 0.01 0.01 0.01 0.01 0.01 0.01 0.02 0.01 0.01 0.02 0.02 0.02 0.04
0.00 0.00 0.00 0.00 0.00 0.00 0.00 0.00 0.00 0.00 0.00 0.00 0.00 0.00 0.00 0.00 0.00 0.00 0.00 0.00 0.00 0.00 0.00 0.00 0.00 0.00 0.00 0.00 0.00 0.00 0.01 0.01 0.01 0.01 0.01 0.01 0.01 0.02 0.01 0.02 0.03 0.03 0.03 0.03
0.00 0.00 0.00 0.00 0.00 0.00 0.00 0.00 0.00 0.00 0.00 0.00 0.00 0.00 0.00 0.00 0.00 0.00 0.00 0.00 0.00 0.00 0.00 0.00 0.00 0.00 0.00 0.00 0.00 0.01 0.01 0.01 0.02 0.01 0.01 0.01 0.01 0.01 0.01 0.01 0.02 0.02 0.02 0.02
0.00 0.00 0.00 0.00 0.00 0.00 0.00 0.00 0.00 0.00 0.00 0.00 0.00 0.00 0.00 0.00 0.00 0.00 0.01 0.00 0.00 0.00 0.00 0.00 0.00 0.01 0.01 0.01 0.01 0.02 0.03 0.03 0.03 0.02 0.01 0.01 0.02 0.01 0.01 0.02 0.02 0.01 0.02 0.02
0.00 0.00 0.00 0.00 0.00 0.00 0.00 0.00 0.00 0.00 0.00 0.00 0.00 0.00 0.00 0.00 0.00 0.00 0.01 0.01 0.01 0.01 0.02 0.02 0.02 0.02 0.01 0.02 0.03 0.04 0.05 0.04 0.04 0.03 0.02 0.02 0.03 0.02 0.02 0.02 0.01 0.01 0.01 0.01
0.00 0.00 0.00 0.00 0.00 0.00 0.00 0.00 0.00 0.00 0.00 0.00 0.00 0.00 0.00 0.00 0.00 0.01 0.02 0.02 0.02 0.03 0.04 0.04 0.03 0.03 0.03 0.04 0.05 0.06 0.06 0.06 0.05 0.03 0.02 0.02 0.02 0.02 0.01 0.02 0.01 0.01 0.01 0.01
0.00 0.00 0.00 0.00 0.00 0.00 0.00 0.00 0.00 0.00 0.00 0.00 0.00 0.00 0.00 0.01 0.01 0.02 0.02 0.03 0.03 0.04 0.04 0.04 0.04 0.05 0.06 0.06 0.08 0.08 0.08 0.06 0.04 0.03 0.02 0.01 0.01 0.01 0.01 0.02 0.01 0.01 0.01 0.00
MSLP
1012.00 1012.01 1012.00 1011.98 1011.96 1011.91 1011.83 1011.71 1011.53 1011.30 1011.03 1010.75 1010.49 1010.30 1010.20 1010.22 1010.37 1010.63 1010.98 1011.40 1011.85 1012.29 1012.70 1013.06 1013.36 1013.62 1013.83 1013.99 1014.11 1014.20 1014.24 1014.24 1014.19 1014.09 1013.95 1013.79 1013.62 1013.45 1013.30 1013.18 1013.09 1013.02 1012.95 1012.87
1011.96 1011.94 1011.86 1011.75 1011.62 1011.46 1011.28 1011.08 1010.86 1010.62 1010.38 1010.16 1009.98 1009.87 1009.84 1009.91 1010.08 1010.35 1010.68 1011.07 1011.48 1011.88 1012.27 1012.62 1012.92 1013.19 1013.42 1013.61 1013.75 1013.86 1013.92 1013.93 1013.89 1013.81 1013.69 1013.54 1013.39 1013.24 1013.10 1012.99 1012.90 1012.81 1012.72 1012.60
1011.93 1011.87 1011.74 1011.55 1011.31 1011.06 1010.79 1010.51 1010.25 1009.99 1009.76 1009.57 1009.44 1009.38 1009.39 1009.49 1009.67 1009.93 1010.25 1010.60 1010.98 1011.36 1011.72 1012.07 1012.39 1012.68 1012.94 1013.16 1013.34 1013.48 1013.57 1013.61 1013.59 1013.53 1013.42 1013.30 1013.16 1013.02 1012.89 1012.77 1012.66 1012.55 1012.43 1012.27
1011.88 1011.79 1011.61 1011.35 1011.04 1010.71 1010.36 1010.01 1009.69 1009.41 1009.17 1008.98 1008.86 1008.82 1008.85 1008.96 1009.14 1009.39 1009.68 1010.02 1010.38 1010.74 1011.11 1011.47 1011.81 1012.14 1012.43 1012.69 1012.92 1013.09 1013.21 1013.27 1013.27 1013.23 1013.14 1013.02 1012.89 1012.75 1012.62 1012.48 1012.35 1012.21 1012.05 1011.85
1011.78 1011.66 1011.44 1011.14 1010.78 1010.38 1009.97 1009.56 1009.19 1008.86 1008.59 1008.39 1008.26 1008.21 1008.24 1008.35 1008.53 1008.76 1009.05 1009.37 1009.73 1010.10 1010.48 1010.86 1011.23 1011.59 1011.93 1012.23 1012.49 1012.70 1012.84 1012.92 1012.94 1012.91 1012.82 1012.71 1012.57 1012.42 1012.26 1012.10 1011.94 1011.77 1011.57 1011.33
1011.58 1011.44 1011.21 1010.88 1010.49 1010.06 1009.60 1009.15 1008.73 1008.36 1008.05 1007.82 1007.66 1007.60 1007.61 1007.71 1007.88 1008.11 1008.39 1008.72 1009.08 1009.47 1009.87 1010.28 1010.69 1011.08 1011.46 1011.79 1012.08 1012.31 1012.47 1012.56 1012.59 1012.55 1012.46 1012.33 1012.18 1012.00 1011.82 1011.63 1011.44 1011.23 1011.00 1010.74
1011.27 1011.13 1010.89 1010.57 1010.18 1009.74 1009.26 1008.79 1008.33 1007.92 1007.57 1007.30 1007.12 1007.02 1007.02 1007.10 1007.26 1007.49 1007.77 1008.11 1008.49 1008.90 1009.32 1009.76 1010.19 1010.61 1011.01 1011.36 1011.66 1011.91 1012.08 1012.17 1012.19 1012.15 1012.04 1011.89 1011.71 1011.51 1011.30 1011.08 1010.86 1010.63 1010.38 1010.12
1010.87 1010.74 1010.54 1010.24 1009.88 1009.45 1008.98 1008.50 1008.02 1007.59 1007.21 1006.90 1006.68 1006.55 1006.52 1006.59 1006.74 1006.96 1007.25 1007.59 1007.98 1008.40 1008.84 1009.28 1009.73 1010.16 1010.56 1010.92 1011.22 1011.46 1011.63 1011.72 1011.73 1011.67 1011.55 1011.38 1011.18 1010.95 1010.72 1010.48 1010.24 1010.00 1009.76 1009.51
1010.45 1010.36 1010.20 1009.96 1009.64 1009.25 1008.81 1008.34 1007.86 1007.41 1007.00 1006.66 1006.41 1006.26 1006.20 1006.24 1006.37 1006.58 1006.86 1007.20 1007.57 1007.99 1008.41 1008.85 1009.28 1009.70 1010.08 1010.43 1010.72 1010.94 1011.09 1011.17 1011.17 1011.10 1010.97 1010.79 1010.57 1010.33 1010.09 1009.84 1009.61 1009.39 1009.17 1008.95
1010.12 1010.09 1009.99 1009.81 1009.55 1009.21 1008.81 1008.36 1007.90 1007.44 1007.02 1006.65 1006.37 1006.18 1006.09 1006.10 1006.20 1006.38 1006.63 1006.94 1007.28 1007.66 1008.05 1008.44 1008.83 1009.21 1009.56 1009.86 1010.12 1010.32 1010.46 1010.52 1010.51 1010.44 1010.30 1010.11 1009.90 1009.66 1009.43 1009.20 1008.99 1008.80 1008.62 1008.45
1009.99 1010.02 1009.99 1009.88 1009.68 1009.39 1009.03 1008.61 1008.16 1007.70 1007.27 1006.89 1006.57 1006.35 1006.22 1006.19 1006.24 1006.38 1006.57 1006.82 1007.11 1007.42 1007.74 1008.06 1008.38 1008.69 1008.98 1009.23 1009.45 1009.61 1009.73 1009.78 1009.76 1009.69 1009.56 1009.38 1009.18 1008.96 1008.75 1008.55 1008.38 1008.23 1008.11 1008.00
1010.15 1010.24 1010.26 1010.21 1010.06 1009.81 1009.49 1009.09 1008.65 1008.20 1007.76 1007.36 1007.02 1006.76 1006.59 1006.51 1006.50 1006.57 1006.70 1006.86 1007.06 1007.27 1007.50 1007.72 1007.95 1008.16 1008.37 1008.56 1008.72 1008.85 1008.93 1008.97 1008.95 1008.88 1008.77 1008.61 1008.44 1008.25 1008.07 1007.90 1007.77 1007.67 1007.60 1007.55
1010.59 1010.72 1010.79 1010.76 1010.64 1010.43 1010.12 1009.75 1009.32 1008.87 1008.42 1008.01 1007.65 1007.37 1007.15 1007.02 1006.95 1006.94 1006.98 1007.04 1007.13 1007.23 1007.34 1007.44 1007.55 1007.67 1007.78 1007.89 1007.99 1008.07 1008.13 1008.15 1008.14 1008.08 1007.98 1007.84 1007.69 1007.53 1007.38 1007.25 1007.16 1007.10 1007.07 1007.05
1011.25 1011.41 1011.48 1011.47 1011.36 1011.15 1010.85 1010.48 1010.06 1009.62 1009.18 1008.76 1008.39 1008.08 1007.84 1007.66 1007.53 1007.44 1007.38 1007.35 1007.32 1007.29 1007.27 1007.25 1007.24 1007.24 1007.25 1007.28 1007.32 1007.35 1007.38 1007.38 1007.36 1007.31 1007.22 1007.11 1006.97 1006.83 1006.70 1006.60 1006.52 1006.48 1006.47 1006.48
1012.02 1012.17 1012.23 1012.21 1012.08 1011.86 1011.56 1011.19 1010.78 1010.35 1009.92 1009.52 1009.15 1008.84 1008.57 1008.35 1008.17 1008.01 1007.87 1007.73 1007.59 1007.44 1007.30 1007.15 1007.02 1006.91 1006.83 1006.77 1006.74 1006.72 1006.71 1006.69 1006.66 1006.61 1006.52 1006.41 1006.29 1006.15 1006.03 1005.92 1005.85 1005.81 1005.79 1005.80
1012.75 1012.87 1012.90 1012.84 1012.69 1012.45 1012.14 1011.77 1011.38 1010.97 1010.57 1010.19 1009.84 1009.54 1009.27 1009.03 1008.81 1008.59 1008.38 1008.15 1007.91 1007.65 1007.39 1007.13 1006.89 1006.68 1006.50 1006.37 1006.27 1006.20 1006.15 1006.10 1006.05 1005.98 1005.89 1005.77 1005.64 1005.50 1005.36 1005.24 1005.15 1005.08 1005.05 1005.03
1013.32 1013.39 1013.38 1013.28 1013.09 1012.83 1012.52 1012.16 1011.79 1011.41 1011.05 1010.70 1010.39 1010.11 1009.85 1009.60 1009.36 1009.10 1008.83 1008.53 1008.20 1007.86 1007.50 1007.15 1006.81 1006.51 1006.25 1006.04 1005.88 1005.75 1005.66 1005.58 1005.50 1005.41 1005.30 1005.17 1005.02 1004.86 1004.70 1004.55 1004.42 1004.32 1004.25 1004.20
1013.66 1013.69 1013.62 1013.48 1013.26 1012.99 1012.68 1012.34 1012.00 1011.66 1011.34 1011.04 1010.76 1010.51 1010.26 1010.02 1009.76 1009.47 1009.16 1008.80 1008.41 1007.99 1007.56 1007.13 1006.72 1006.35 1006.02 1005.74 1005.52 1005.35 1005.21 1005.09 1004.99 1004.87 1004.74 1004.59 1004.41 1004.23 1004.04 1003.87 1003.71 1003.57 1003.47 1003.38
1013.77 1013.75 1013.65 1013.47 1013.23 1012.95 1012.65 1012.33 1012.02 1011.72 1011.44 1011.18 1010.93 1010.70 1010.47 1010.22 1009.95 1009.64 1009.30 1008.90 1008.46 1007.99 1007.51 1007.03 1006.56 1006.13 1005.75 1005.42 1005.15 1004.93 1004.75 1004.60 1004.46 1004.33 1004.18 1004.01 1003.82 1003.62 1003.42 1003.22 1003.04 1002.88 1002.74 1002.63
1013.72 1013.66 1013.52 1013.31 1013.07 1012.79 1012.50 1012.20 1011.91 1011.64 1011.38 1011.14 1010.91 1010.69 1010.46 1010.20 1009.91 1009.58 1009.21 1008.79 1008.32 1007.82 1007.31 1006.79 1006.29 1005.83 1005.41 1005.04 1004.74 1004.48 1004.27 1004.09 1003.93 1003.77 1003.61 1003.44 1003.25 1003.05 1002.85 1002.65 1002.46 1002.30 1002.16 1002.04
1013.57 1013.48 1013.32 1013.10 1012.85 1012.57 1012.29 1012.00 1011.72 1011.46 1011.21 1010.96 1010.73 1010.49 1010.23 1009.96 1009.65 1009.30 1008.90 1008.46 1007.98 1007.48 1006.95 1006.43 1005.92 1005.44 1005.01 1004.62 1004.29 1004.01 1003.77 1003.57 1003.39 1003.23 1003.07 1002.91 1002.74 1002.56 1002.38 1002.20 1002.04 1001.89 1001.76 1001.64
1013.40 1013.29 1013.11 1012.88 1012.63 1012.35 1012.06 1011.77 1011.49 1011.21 1010.93 1010.66 1010.39 1010.12 1009.83 1009.52 1009.18 1008.81 1008.41 1007.97 1007.50 1007.00 1006.50 1005.99 1005.50 1005.03 1004.59 1004.20 1003.86 1003.57 1003.32 1003.10 1002.92 1002.76 1002.61 1002.47 1002.33 1002.20 1002.06 1001.93 1001.80 1001.69 1001.58 1001.49
1013.24 1013.10 1012.91 1012.68 1012.41 1012.13 1011.83 1011.52 1011.20 1010.88 1010.57 1010.25 1009.93 1009.60 1009.27 1008.93 1008.56 1008.19 1007.79 1007.37 1006.93 1006.48 1006.01 1005.55 1005.10 1004.66 1004.25 1003.87 1003.53 1003.24 1002.98 1002.77 1002.58 1002.43 1002.30 1002.19 1002.10 1002.01 1001.93 1001.86 1001.78 1001.71 1001.65 1001.58
1013.06 1012.90 1012.70 1012.46 1012.19 1011.88 1011.56 1011.21 1010.85 1010.49 1010.11 1009.74 1009.36 1008.98 1008.61 1008.24 1007.87 1007.51 1007.14 1006.76 1006.38 1006.00 1005.61 1005.22 1004.82 1004.44 1004.07 1003.72 1003.40 1003.11 1002.85 1002.64 1002.46 1002.32 1002.21 1002.13 1002.08 1002.05 1002.03 1002.01 1001.99 1001.97 1001.94 1001.90
1012.82 1012.65 1012.44 1012.19 1011.90 1011.57 1011.21 1010.83 1010.43 1010.01 1009.58 1009.15 1008.72 1008.31 1007.92 1007.55 1007.19 1006.86 1006.55 1006.25 1005.96 1005.67 1005.37 1005.07 1004.76 1004.45 1004.13 1003.83 1003.53 1003.25 1003.00 1002.78 1002.60 1002.47 1002.38 1002.33 1002.31 1002.32 1002.35 1002.38 1002.41 1002.43 1002.43 1002.40
1012.49 1012.30 1012.08 1011.81 1011.50 1011.16 1010.77 1010.36 1009.91 1009.45 1008.99 1008.52 1008.07 1007.65 1007.27 1006.92 1006.61 1006.35 1006.12 1005.92 1005.73 1005.56 1005.38 1005.18 1004.97 1004.74 1004.49 1004.22 1003.95 1003.69 1003.44 1003.22 1003.04 1002.90 1002.81 1002.77 1002.78 1002.81 1002.87 1002.93 1002.99 1003.04 1003.05 1003.02
1012.03 1011.84 1011.60 1011.32 1011.01 1010.64 1010.24 1009.81 1009.34 1008.87 1008.39 1007.92 1007.48 1007.08 1006.74 1006.45 1006.22 1006.04 1005.92 1005.83 1005.77 1005.71 1005.65 1005.57 1005.45 1005.30 1005.11 1004.89 1004.65 1004.40 1004.15 1003.93 1003.73 1003.58 1003.49 1003.44 1003.44 1003.48 1003.55 1003.62 1003.69 1003.74 1003.74 1003.70
Thickness
5761 5766 5763 5759 5759 5759 5752 5752 5747 5753 5757 5765 5768 5766 5765 5762 5756 5749 5742 5737 5733 5728 5724 5718 5713 5707 5702 5697 5692 5686 5679 5674 5669 5664 5658 5653 5647 5642 5636 5630 5625 5620 5615 5610
5752 5761 5760 5753 5758 5759 5756 5756 5754 5753 5756 5772 5770 5766 5761 5757 5752 5745 5741 5738 5734 5728 5723 5717 5711 5705 5700 5694 5689 5682 5675 5670 5666 5660 5654 5649 5643 5637 5631 5625 5619 5613 5608 5603
5742 5758 5751 5743 5759 5760 5759 5761 5756 5751 5759 5766 5761 5758 5757 5755 5751 5746 5743 5739 5734 5729 5723 5717 5711 5705 5698 5692 5686 5679 5672 5667 5662 5656 5650 5644 5638 5632 5626 5619 5613 5607 5601 5597
5743 5741 5721 5755 5775 5769 5761 5762 5765 5761 5763 5762 5760 5760 5760 5759 5754 5748 5745 5740 5735 5730 5724 5717 5711 5704 5696 5690 5682 5675 5669 5664 5659 5652 5646 5639 5632 5626 5619 5613 5607 5601 5596 5591
5738 5732 5737 5759 5768 5765 5755 5755 5769 5764 5762 5763 5761 5756 5757 5759 5756 5751 5747 5742 5736 5731 5726 5717 5709 5702 5693 5685 5679 5673 5667 5661 5655 5649 5641 5634 5627 5620 5614 5607 5601 5595 5591 5586
5731 5721 5721 5748 5765 5770 5759 5745 5769 5765 5761 5760 5753 5744 5754 5763 5757 5751 5747 5742 5735 5730 5722 5713 5705 5698 5688 5682 5676 5670 5664 5658 5651 5643 5635 5628 5621 5614 5608 5601 5595 5590 5586 5581
5727 5722 5737 5758 5762 5759 5735 5740 5762 5764 5761 5758 5752 5752 5759 5760 5755 5749 5744 5738 5732 5725 5717 5710 5702 5693 5683 5678 5672 5667 5661 5653 5646 5638 5630 5624 5617 5610 5603 5597 5591 5585 5581 5578
5726 5717 5727 5752 5753 5744 5743 5754 5757 5757 5758 5755 5754 5756 5754 5752 5748 5744 5739 5734 5728 5719 5713 5706 5698 5688 5680 5673 5669 5663 5655 5647 5640 5633 5626 5621 5612 5605 5599 5592 5587 5583 5579 5576
5735 5735 5743 5749 5745 5747 5747 5745 5747 5750 5753 5752 5750 5750 5749 5746 5743 5740 5736 5731 5724 5716 5708 5701 5693 5685 5676 5671 5665 5657 5649 5642 5635 5628 5622 5615 5608 5602 5596 5591 5586 5582 5578 5575
5729 5738 5740 5740 5739 5738 5738 5737 5742 5745 5747 5747 5745 5745 5743 5741 5738 5734 5730 5725 5719 5711 5703 5695 5689 5681 5674 5668 5660 5651 5643 5637 5631 5624 5618 5612 5604 5599 5594 5589 5585 5580 5575 5572
5721 5728 5730 5728 5721 5723 5726 5730 5733 5736 5738 5738 5737 5736 5735 5733 5730 5727 5723 5718 5713 5705 5698 5692 5684 5677 5670 5663 5654 5645 5638 5633 5627 5621 5616 5607 5601 5595 5589 5585 5579 5571 5570 5567
5713 5711 5710 5707 5710 5713 5714 5715 5718 5720 5722 5725 5725 5723 5723 5721 5719 5715 5712 5708 5702 5696 5691 5686 5679 5671 5664 5658 5650 5640 5633 5628 5624 5618 5611 5604 5598 5594 5588 5579 5573 5565 5558 5553
5703 5703 5700 5698 5699 5703 5704 5705 5706 5706 5706 5706 5708 5709 5708 5706 5705 5702 5699 5695 5691 5686 5682 5677 5671 5665 5659 5653 5644 5636 5629 5624 5619 5613 5607 5600 5595 5589 5585 5581 5572 5564 5558 5552
5692 5690 5684 5684 5685 5689 5691 5692 5694 5693 5692 5692 5691 5692 5691 5690 5689 5686 5684 5682 5680 5676 5672 5668 5663 5659 5653 5646 5639 5631 5624 5619 5611 5606 5600 5595 5590 5585 5581 5577 5573 5571 5564 5554
5678 5678 5674 5673 5673 5674 5676 5677 5676 5675 5675 5675 5675 5674 5673 5672 5671 5670 5670 5669 5667 5664 5661 5658 5653 5649 5644 5639 5632 5625 5619 5614 5608 5603 5596 5592 5587 5582 5578 5574 5571 5569 5566 5561
5664 5664 5662 5659 5657 5658 5658 5658 5657 5657 5658 5658 5658 5657 5657 5657 5656 5656 5655 5654 5652 5649 5647 5644 5641 5638 5635 5630 5624 5618 5613 5606 5598 5595 5591 5587 5583 5579 5575 5572 5569 5567 5563 5561
5648 5645 5643 5642 5641 5641 5641 5641 5641 5642 5643 5643 5642 5643 5642 5642 5641 5640 5639 5639 5637 5634 5632 5630 5628 5625 5622 5619 5614 5611 5607 5603 5589 5585 5584 5582 5579 5575 5572 5568 5566 5563 5561 5559
5632 5629 5627 5626 5625 5625 5625 5626 5627 5627 5627 5628 5628 5628 5626 5625 5623 5622 5622 5622 5622 5620 5619 5616 5613 5609 5608 5606 5603 5600 5597 5594 5589 5584 5580 5575 5573 5570 5567 5564 5562 5559 5558 5556
5618 5616 5614 5613 5612 5612 5612 5612 5613 5613 5613 5612 5612 5610 5610 5609 5607 5606 5606 5604 5604 5603 5601 5599 5593 5594 5595 5594 5588 5586 5585 5583 5579 5576 5572 5568 5563 5562 5561 5560 5558 5556 5555 5552
5604 5603 5602 5601 5601 5600 5600 5601 5600 5599 5598 5597 5595 5594 5592 5591 5590 5589 5588 5587 5587 5584 5580 5579 5578 5580 5580 5579 5572 5574 5573 5571 5569 5567 5565 5563 5561 5558 5556 5555 5554 5552 5550 5548
5592 5592 5591 5592 5590 5589 5588 5587 5585 5584 5583 5581 5579 5577 5575 5574 5573 5571 5570 5570 5569 5565 5562 5560 5563 5564 5564 5559 5555 5560 5561 5560 5559 5557 5556 5555 5553 5552 5551 5549 5548 5546 5545 5542
5580 5579 5578 5578 5577 5576 5575 5573 5572 5570 5568 5565 5563 5561 5559 5557 5557 5556 5554 5552 5551 5545 5544 5546 5546 5542 5538 5536 5544 5548 5549 5548 5547 5547 5546 5545 5544 5544 5543 5542 5541 5540 5539 5537
5568 5566 5565 5564 5563 5561 5560 5559 5558 5556 5553 5550 5547 5545 5544 5541 5540 5539 5538 5536 5532 5526 5524 5527 5522 5517 5515 5523 5531 5534 5534 5533 5534 5535 5535 5535 5535 5535 5535 5535 5534 5534 5532 5531
5554 5553 5552 5551 5549 5548 5547 5547 5545 5542 5539 5537 5536 5534 5530 5529 5528 5527 5523 5518 5512 5507 5508 5506 5501 5500 5499 5508 5512 5514 5515 5516 5518 5521 5523 5524 5524 5525 5526 5525 5526 5527 5526 5525
5541 5540 5539 5538 5536 5537 5536 5535 5533 5531 5529 5528 5526 5523 5520 5517 5514 5512 5506 5502 5497 5493 5494 5492 5488 5485 5488 5492 5494 5495 5497 5499 5501 5504 5509 5511 5513 5514 5515 5516 5517 5518 5518 5518
5529 5528 5528 5525 5524 5521 5523 5522 5521 5519 5517 5515 5513 5511 5509 5506 5502 5498 5494 5490 5486 5480 5480 5479 5478 5475 5476 5476 5477 5478 5480 5483 5487 5491 5495 5498 5501 5503 5506 5507 5507 5509 5510 5511
5520 5519 5518 5517 5517 5516 5514 5511 5509 5507 5505 5503 5501 5499 5496 5493 5489 5486 5481 5477 5474 5470 5468 5466 5464 5462 5461 5462 5462 5464 5467 5471 5476 5479 5483 5486 5489 5492 5495 5496 5498 5500 5501 5504